Weather History for Jackson, MS

Change the Weather History Date:

Sunday, October 7, 2012

  Actual Average Record
Temperature  
Mean Temperature 56 °F 68 °F  
Max Temperature 63 °F 80 °F 96 °F (1911)
Min Temperature 49 °F 56 °F 35 °F (1932)
Degree Days  
Heating Degree Days 9 2  
Month to date heating degree days 16 8  
Since 1 July heating degree days 17 15  
Cooling Degree Days 0 5  
Month to date cooling degree days 17 38  
Year to date cooling degree days 2454 2164  
Growing Degree Days 6 (Base 50)    
Moisture  
Dew Point 45 °F    
Average Humidity 74    
Maximum Humidity 96    
Minimum Humidity 51    
Precipitation  
Precipitation 0.00 in 0.12 in 2.86 in (1982)
Month to date precipitation 0.14 0.83  
Year to date precipitation 56.97 41.14  
Sea Level Pressure  
Sea Level Pressure 30.16 in    
Wind  
Wind Speed 9 mph (North)    
Max Wind Speed 20 mph    
Max Gust Speed 23 mph    
Visibility 10 miles    
Events      
T = Trace of Precipitation, MM = Missing Value Source: NWS Daily Summary

Daily Weather History Graph

Daily Weather History Graph

Search for Another Location

Airport:

Trip Planner

Search our weather history database for the weather conditions in past years. The results will help you decide how hot, cold, wet, or windy it might be!

Date:

Astronomy

Oct. 07, 2012 Rise Set
Actual Time 6:58 AM CDT 6:36 PM CDT
Civil Twilight 6:34 AM CDT 7:01 PM CDT
Nautical Twilight 6:05 AM CDT 7:29 PM CDT
Astronomical Twilight 5:37 AM CDT 7:58 PM CDT
Moon No Moon Rise 1:22 PM CDT (10/7)
Length of Visible Light 12h 27m
Length of Day
11h 38m
Waning Gibbous, 56% of the Moon is Illuminated
Oct 7
Waning Gibbous
Oct 8
Last Quarter
Oct 15
New
Oct 21
First Quarter
Oct 29
Full

Hourly Weather History & Observations

Time (CDT) Temp. Dew Point Humidity Pressure Visibility Wind Dir Wind Speed Gust Speed Precip Events Conditions
12:54 AM 52.0 °F 50.0 °F 93% 30.12 in 9.0 mi NNW 5.8 mph - N/A   Overcast
1:54 AM 52.0 °F 48.9 °F 89% 30.12 in 10.0 mi North 11.5 mph - N/A   Overcast
2:31 AM 51.8 °F 48.2 °F 88% 30.12 in 10.0 mi North 11.5 mph - N/A   Overcast
2:54 AM 52.0 °F 46.9 °F 83% 30.12 in 10.0 mi North 13.8 mph - N/A   Overcast
3:54 AM 52.0 °F 46.9 °F 83% 30.12 in 10.0 mi North 9.2 mph - N/A   Overcast
4:54 AM 51.1 °F 46.0 °F 83% 30.14 in 10.0 mi North 8.1 mph - N/A   Overcast
5:54 AM 51.1 °F 45.0 °F 80% 30.16 in 10.0 mi NNW 11.5 mph - N/A   Overcast
6:54 AM 50.0 °F 45.0 °F 83% 30.17 in 10.0 mi North 9.2 mph - N/A   Overcast
7:54 AM 51.1 °F 45.0 °F 80% 30.19 in 10.0 mi NNW 12.7 mph - N/A   Overcast
8:54 AM 51.1 °F 45.0 °F 80% 30.21 in 10.0 mi North 10.4 mph - N/A   Overcast
9:29 AM 53.6 °F 44.6 °F 72% 30.21 in 10.0 mi North 15.0 mph - N/A   Overcast
9:54 AM 54.0 °F 44.1 °F 69% 30.20 in 10.0 mi North 10.4 mph - N/A   Overcast
10:54 AM 55.0 °F 44.1 °F 67% 30.20 in 10.0 mi North 12.7 mph - N/A   Overcast
11:54 AM 57.0 °F 45.0 °F 64% 30.20 in 10.0 mi North 16.1 mph 20.7 mph N/A   Overcast
12:54 PM 57.9 °F 45.0 °F 62% 30.19 in 10.0 mi North 9.2 mph 17.3 mph N/A   Overcast
1:33 PM 60.8 °F 44.6 °F 55% 30.17 in 10.0 mi North 11.5 mph - N/A   Mostly Cloudy
1:54 PM 61.0 °F 44.1 °F 54% 30.15 in 10.0 mi NNE 12.7 mph - N/A   Mostly Cloudy
2:54 PM 61.0 °F 44.1 °F 54% 30.14 in 10.0 mi North 13.8 mph 19.6 mph N/A   Mostly Cloudy
3:54 PM 61.0 °F 43.0 °F 52% 30.13 in 10.0 mi North 13.8 mph 20.7 mph N/A   Partly Cloudy
4:54 PM 61.0 °F 43.0 °F 52% 30.12 in 10.0 mi North 11.5 mph - N/A   Partly Cloudy
5:54 PM 57.9 °F 43.0 °F 58% 30.13 in 10.0 mi North 9.2 mph - N/A   Partly Cloudy
6:54 PM 55.0 °F 42.1 °F 62% 30.14 in 10.0 mi North 8.1 mph - N/A   Clear
7:54 PM 54.0 °F 44.1 °F 69% 30.14 in 10.0 mi NNE 3.5 mph - N/A   Mostly Cloudy
8:54 PM 54.0 °F 43.0 °F 66% 30.17 in 10.0 mi North 4.6 mph - N/A   Partly Cloudy
9:54 PM 52.0 °F 44.1 °F 74% 30.16 in 10.0 mi Calm Calm - N/A   Clear
10:54 PM 48.9 °F 46.0 °F 90% 30.16 in 10.0 mi Calm Calm - N/A   Partly Cloudy
11:54 PM 50.0 °F 44.1 °F 80% 30.14 in 10.0 mi East 3.5 mph - N/A   Clear